Location: Miss�
(46.9484°N, 0.1922°W)
Time: 09:53:46
(UTC+00:00)

Cosmos 1486 Rocket - Pass Details

Date: 02 March 2021
Orbit: 758 x 784 km, 74.1° (Epoch: 11 April)

Event Time Altitude Azimuth Distance (km) Brightness Sun altitude
Rises 18:27:38 0° 339° (NNW) 3,254 7.5 -7.6°
Reaches altitude 10° 18:30:02 10° 343° (NNW) 2,327 6.7 -8.0°
Maximum altitude 18:35:18 67° 66° (ENE) 844 4.0 -8.9°
Drops below altitude 10° 18:40:34 10° 149° (SSE) 2,327 6.2 -9.8°
Sets 18:42:58 0° 152° (SSE) 3,254 7.0 -10.2°
